User: anonymous   Login
Location: Lamoine Observatory
(44.4551°N, 68.3470°W)
Time: 17:02:41
(UTC-04:00)
Language:

Cosmos 1674 Rocket - Orbit

View from above orbital plane
View from above orbital plane
View from above satellite
View from above satellite

Ground track
Ground track

The orbit data is extracted from the following two-line orbital elements,

1 15945U 85069B   18173.47427770  .00000089  00000-0  76863-5 0  9992
2 15945  82.5271 146.2364 0020804 136.7493 223.5360 14.83974400775947
Epoch (UTC): 22 June 2018 11:22:57
Eccentricity: 0.0020804
inclination: 82.5271°
perigee height: 602 km
apogee height: 631 km
right ascension of ascending node: 146.2364°
argument of perigee: 136.7493°
revolutions per day: 14.83974400
mean anomaly at epoch: 223.5360°
orbit number at epoch: 77594

The dashed part of the orbit path shows where the satellite is in the earth's shadow,  

DLR